This is the latest recevied weather packets stored in our database for station/object KM6YFK-13. If no packets are shown the sender has not sent any weather packets the latest 1 day(s).
| Time | Temp. | Humidity | Pressure | Rain* | Wind** | Luminosity | Snow |
|---|---|---|---|---|---|---|---|
| 1778033907 | 22.78° C | 68% | 1016.2 hPa | 0 mm | - | 0 W/m² | - |
| 1778033610 | 22.78° C | 67% | 1016.3 hPa | 0 mm | - | 0 W/m² | - |
| 1778033310 | 22.22° C | 66% | 1016.3 hPa | 0 mm | - | 0 W/m² | - |
| 1778033008 | 22.22° C | 64% | 1016.2 hPa | 0 mm | - | 0 W/m² | - |
| 1778032708 | 22.22° C | 63% | 1016.3 hPa | 0 mm | - | 0 W/m² | - |
| 1778032408 | 22.78° C | 62% | 1016.3 hPa | 0 mm | - | 0 W/m² | - |
| 1778032109 | 22.78° C | 61% | 1016.2 hPa | 0 mm | - | 0 W/m² | - |
| 1778031809 | 22.78° C | 61% | 1016.2 hPa | 0 mm | - | 0 W/m² | - |
| 1778030610 | 22.78° C | 59% | 1016.2 hPa | 0 mm | - | 0 W/m² | - |
| 1778030308 | 22.78° C | 59% | 1016.3 hPa | 0 mm | - | 0 W/m² | - |
| 1778030008 | 22.78° C | 60% | 1016.2 hPa | 0 mm | - | 0 W/m² | - |
| 1778029707 | 22.78° C | 59% | 1016.2 hPa | 0 mm | - | 0 W/m² | - |
| 1778029410 | 22.78° C | 59% | 1016.1 hPa | 0 mm | - | 0 W/m² | - |
| 1778029107 | 22.78° C | 59% | 1016.1 hPa | 0 mm | - | 0 W/m² | - |
| 1778028810 | 22.78° C | 60% | 1016 hPa | 0 mm | - | 0 W/m² | - |
| 1778028507 | 22.78° C | 61% | 1016 hPa | 0 mm | - | 0 W/m² | - |
| 1778028210 | 22.78° C | 61% | 1015.8 hPa | 0 mm | - | 0 W/m² | - |
| 1778027910 | 22.78° C | 60% | 1015.7 hPa | 0 mm | - | 0 W/m² | - |
| 1778026707 | 23.33° C | 60% | 1015.6 hPa | 0 mm | - | 0 W/m² | - |
| 1778026408 | 23.33° C | 59% | 1015.6 hPa | 0 mm | - | 1 W/m² | - |
| 1778025508 | 23.33° C | 58% | 1015.5 hPa | 0 mm | - | 5 W/m² | - |
| 1778025210 | 23.33° C | 57% | 1015.6 hPa | 0 mm | - | 8 W/m² | - |
| 1778024910 | 23.33° C | 55% | 1015.5 hPa | 0 mm | - | 11 W/m² | - |
| 1778024310 | 23.89° C | 52% | 1015.6 hPa | 0 mm | - | 18 W/m² | - |
| 1778022210 | 25° C | 52% | 1015.7 hPa | 0 mm | - | 97 W/m² | - |
* Rain latest hour (hover to see other rain measurements)
** Current wind speed in m/s (hover to see current wind gust speed)